User: anonymous   Login
Location: Keewatin
(47.4004°N, 93.0827°W)
Time: 20:05:16
(UTC+00:00)
Language:

ZACube-1 - Orbit

View from above orbital plane
View from above orbital plane
View from above satellite
View from above satellite

Ground track
Ground track

The orbit data is extracted from the following two-line orbital elements,

1 39417U 13066B   21023.50449260  .00000254  00000-0  38124-4 0  9991
2 39417  97.5800  15.4599 0057225 276.6110  82.8592 14.81413636387618
Epoch (UTC): 23 January 2021 12:06:28
Eccentricity: 0.0057225
inclination: 97.5800°
perigee height: 585 km
apogee height: 665 km
right ascension of ascending node: 15.4599°
argument of perigee: 276.6110°
revolutions per day: 14.81413636
mean anomaly at epoch: 82.8592°
orbit number at epoch: 38761

The dashed part of the orbit path shows where the satellite is in the earth's shadow,  

DLR